Flag for Canada Weather past 2 weeks in Red Deer, Alberta, Canada

Now
59 °F

More clouds than sun.


Feels Like: 57 °F
Forecast: 58 / 75 °F
Wind: 10 mph from Northwest

Location: Red Deer

Current Time: Jul 1, 2015 at 9:19:01 AM

Latest Report: Jul 1, 2015 at 8:00 AM


Visibility: 15 mi

Pressure: 30.10 "Hg

Humidity: 88%

Dew point: 55 °F

Location of Red DeerLocation

Historic Weather in Red Deer — Graph

°F

Red Deer temperature yesterday

Maximum temperature yesterday: 70 °F (at 3:00 PM)
Minimum temperature yesterday: 57 °F (at 4:00 AM)
Average temperature yesterday: 63 °F

Past Weeks' High & Low Weather Summary

 TemperatureHumidityPressure
High84 °F (Jun 27, 4:00 PM)100% (Jun 17, 5:00 AM)30.20 "Hg (Jun 17, 5:00 AM)
Low39 °F (Jun 20, 5:00 AM)27% (Jun 16, 3:00 PM)29.78 "Hg (Jun 19, 1:00 PM)
Average61 °F70%30.03 "Hg
* Reported Jun 16 8:00 AM — Jul 1 8:00 AM, Red Deer, Weather by CustomWeather, © 2015

Note: Actual official high and low records may vary slightly from our data, if they occured in-between our weather recording intervals... More about our weather records

Advertising

Red Deer weather history for previous 24 hours

 ConditionsComfort  
Time TempWeatherWind HumidityBarometerVisibility
8:00 AM
Wed, Jul 1
59 °FMore clouds than sun.10 mph88%30.10 "Hg15 mi
7:00 AM59 °FScattered showers. Mostly cloudy.12 mph88%30.08 "Hg15 mi
6:00 AM59 °FPartly cloudy.7 mph88%30.06 "Hg15 mi
5:00 AM59 °FPartly cloudy.6 mph88%30.04 "Hg15 mi
4:00 AM59 °FPartly cloudy.6 mph94%30.04 "Hg15 mi
3:00 AM61 °FPassing clouds.6 mph88%30.04 "Hg15 mi
2:00 AM61 °FPassing clouds.8 mph88%30.04 "Hg15 mi
1:00 AM61 °FPartly cloudy.8 mph88%30.05 "Hg15 mi
12:00 AM61 °FPassing clouds.7 mph88%30.03 "Hg15 mi
11:00 PM
Tue, Jun 30
61 °FPassing clouds.8 mph88%30.03 "Hg15 mi
10:00 PM61 °FScattered showers. Partly sunny.7 mph94%30.03 "Hg15 mi
9:00 PM63 °FSprinkles. Partly sunny.7 mph83%30.03 "Hg15 mi
8:00 PM64 °FScattered showers. Broken clouds.8 mph83%30.03 "Hg12 mi
7:00 PM63 °FThunderstorms. Partly sunny.8 mph94%30.01 "Hg7 mi
6:00 PM70 °FThunderstorms. Mostly cloudy.3 mph69%30.01 "Hg3 mi
5:00 PM70 °FBroken clouds.2 mph64%30.01 "Hg3 mi
4:00 PM70 °FBroken clouds.6 mph69%30.01 "Hg4 mi
3:00 PM70 °FPartly sunny.7 mph69%30.02 "Hg3 mi
2:00 PM68 °FPartly sunny.6 mph73%30.02 "Hg3 mi
1:00 PM66 °FOvercast.6 mph73%30.02 "Hg2 mi
12:00 PM64 °FOvercast.6 mph78%30.02 "Hg2 mi
11:00 AM64 °FPartly sunny.7 mph78%30.01 "Hg2 mi
10:00 AM61 °FBroken clouds.5 mph88%30.02 "Hg2 mi
9:00 AM59 °FFog.6 mph94%30.02 "Hg2 mi
Weather by CustomWeather, © 2015

See weather overviewHow to use our weather pages